Weather History for KERY - October, 2013

Change the Weather History Date:

Wednesday, October 23, 2013

  Actual Average Record
Temperature  
Mean Temperature 32 °F -  
Max Temperature 37 °F 52 °F 78 °F (1963)
Min Temperature 27 °F 34 °F 20 °F (1917)
Degree Days  
Heating Degree Days 33    
Moisture  
Dew Point 31 °F    
Average Humidity 96    
Maximum Humidity 100    
Minimum Humidity 82    
Precipitation  
Precipitation 0.09 in - - ()
Sea Level Pressure  
Sea Level Pressure 29.81 in    
Wind  
Wind Speed 7 mph (West)    
Max Wind Speed 14 mph    
Max Gust Speed 20 mph    
Visibility 6 miles    
Events Snow    
Averages and records for this station are not official NWS values.
T = Trace of Precipitation, MM = Missing Value Source: NWS Daily Summary

Daily Weather History Graph

Daily Weather History Graph

Search for Another Location

Airport or City:

Trip Planner

Search our weather history database for the weather conditions in past years. The results will help you decide how hot, cold, wet, or windy it might be!

Date:

Astronomy

Oct. 23, 2013 Rise Set
Actual Time 8:10 AM EDT 6:40 PM EDT
Civil Twilight 7:39 AM EDT 7:11 PM EDT
Nautical Twilight 7:04 AM EDT 7:46 PM EDT
Astronomical Twilight 6:29 AM EDT 8:21 PM EDT
Moon 10:02 PM EDT (10/23) 12:35 PM EDT (10/23)
Length of Visible Light 11h 31m
Length of Day
10h 30m
Waning Gibbous, 79% of the Moon is Illuminated
Oct 23
Waning Gibbous
Oct 26
Last Quarter
Nov 3
New
Nov 10
First Quarter
Nov 17
Full

Hourly Weather History & Observations

Time (EDT) Temp. Windchill Dew Point Humidity Pressure Visibility Wind Dir Wind Speed Gust Speed Precip Events Conditions
12:15 AM 32.0 °F 25.6 °F 31.5 °F 98% 29.84 in 10.0 mi West 6.9 mph - N/A Snow Light Snow
12:35 AM 32.0 °F 24.8 °F 31.6 °F 99% 29.84 in 10.0 mi West 8.1 mph - N/A   Overcast
12:55 AM 32.0 °F 24.8 °F 31.5 °F 98% 29.84 in 10.0 mi WNW 8.1 mph - N/A   Overcast
1:15 AM 32.0 °F 24.2 °F 31.5 °F 98% 29.84 in 3.0 mi WNW 9.2 mph 17.3 mph N/A Snow Light Snow
1:35 AM 32.0 °F 27.5 °F 31.5 °F 98% 29.84 in 5.0 mi WNW 4.6 mph - N/A Snow Light Snow
1:55 AM 32.0 °F 26.4 °F 31.5 °F 98% 29.84 in 5.0 mi NNW 5.8 mph - N/A Snow Light Snow
2:15 AM 31.6 °F 27.0 °F 31.1 °F 98% 29.84 in 7.0 mi NNW 4.6 mph - N/A Snow Light Snow
2:36 AM 31.5 °F - 31.1 °F 99% 29.84 in 10.0 mi Calm Calm - N/A   Overcast
2:55 AM 31.1 °F 26.4 °F 30.9 °F 99% 29.84 in 10.0 mi WSW 4.6 mph - N/A   Overcast
3:15 AM 31.8 °F 28.5 °F 31.5 °F 99% 29.84 in 3.0 mi WSW 3.5 mph - N/A Snow Light Snow
3:35 AM 31.6 °F 27.0 °F 31.1 °F 98% 29.83 in 5.0 mi WSW 4.6 mph - N/A Snow Light Snow
3:55 AM 31.6 °F 27.0 °F 31.1 °F 98% 29.82 in 2.0 mi WSW 4.6 mph - N/A Snow Light Snow
4:15 AM 31.1 °F 25.4 °F 30.7 °F 99% 29.82 in 10.0 mi WSW 5.8 mph - N/A   Mostly Cloudy
4:35 AM 30.9 °F 24.3 °F 30.6 °F 99% 29.81 in 3.0 mi SW 6.9 mph - N/A Snow Light Snow
4:55 AM 30.0 °F 26.5 °F 29.7 °F 99% 29.81 in 10.0 mi WSW 3.5 mph - N/A   Scattered Clouds
5:15 AM 29.5 °F - 29.3 °F 99% 29.80 in 10.0 mi Calm Calm - N/A   Scattered Clouds
5:35 AM 29.3 °F - 29.3 °F 100% 29.81 in 10.0 mi Calm Calm - N/A   Mostly Cloudy
5:55 AM 30.2 °F - 30.0 °F 99% 29.81 in 7.0 mi Calm Calm - 0.01 in Snow Light Snow
6:15 AM 28.4 °F 21.2 °F 28.2 °F 99% 29.80 in 7.0 mi SSW 6.9 mph - N/A Snow Light Snow
6:35 AM 28.9 °F 21.9 °F 28.9 °F 100% 29.79 in 0.8 mi SSW 6.9 mph - N/A   Overcast
6:56 AM 27.5 °F 21.1 °F 27.5 °F 100% 29.79 in 4.0 mi SSW 5.8 mph - N/A   Mostly Cloudy
7:15 AM 29.7 °F 26.1 °F 29.3 °F 99% 29.80 in 4.0 mi West 3.5 mph - N/A Snow Light Snow
7:35 AM 30.2 °F 25.4 °F 30.0 °F 99% 29.80 in 1.0 mi WSW 4.6 mph - 0.01 in Snow Snow
7:56 AM 29.7 °F 24.7 °F 29.1 °F 98% 29.80 in 4.0 mi West 4.6 mph - 0.01 in Snow Light Snow
8:15 AM 30.6 °F 24.7 °F 30.0 °F 98% 29.80 in 10.0 mi West 5.8 mph - N/A   Overcast
8:35 AM 29.5 °F 23.4 °F 28.4 °F 96% 29.81 in 7.0 mi West 5.8 mph - N/A Snow Light Snow
8:54 AM 31.1 °F 23.7 °F 30.2 °F 96% 29.81 in 2.0 mi West 8.1 mph - N/A Snow Light Snow
9:15 AM 31.1 °F 24.5 °F 30.6 °F 98% 29.81 in 0.8 mi West 6.9 mph - 0.01 in Snow Light Snow
9:35 AM 31.6 °F 24.4 °F 31.1 °F 98% 29.81 in 0.8 mi West 8.1 mph - 0.03 in Snow Light Snow
9:54 AM 32.0 °F 23.6 °F 31.5 °F 98% 29.80 in 0.5 mi West 10.4 mph - 0.04 in Snow Light Snow
10:15 AM 32.0 °F 23.6 °F 31.5 °F 98% 29.80 in 2.0 mi WSW 10.4 mph - N/A Snow Light Snow
10:35 AM 32.0 °F 23.0 °F 31.6 °F 99% 29.80 in 1.5 mi WSW 11.5 mph - N/A Snow Light Snow
10:55 AM 32.0 °F 24.2 °F 31.6 °F 99% 29.80 in 0.5 mi WSW 9.2 mph - 0.02 in Snow Snow
11:15 AM 32.0 °F 24.8 °F 31.6 °F 99% 29.80 in 10.0 mi West 8.1 mph - N/A   Overcast
11:35 AM 32.4 °F 25.3 °F 31.6 °F 97% 29.79 in 10.0 mi WSW 8.1 mph - N/A   Overcast
11:55 AM 33.6 °F 25.6 °F 32.0 °F 94% 29.80 in 10.0 mi West 10.4 mph 16.1 mph N/A   Overcast
12:15 PM 32.9 °F 24.7 °F 32.0 °F 96% 29.80 in 1.5 mi WSW 10.4 mph - N/A Snow Light Snow
12:34 PM 32.5 °F 24.8 °F 32.0 °F 98% 29.81 in 0.8 mi West 9.2 mph - N/A Snow Light Snow
12:55 PM 32.9 °F 26.7 °F 32.0 °F 96% 29.80 in 3.0 mi WSW 6.9 mph - N/A Snow Light Snow
1:15 PM 33.6 °F 26.2 °F 32.0 °F 94% 29.80 in 2.5 mi West 9.2 mph - N/A Snow Light Snow
1:34 PM 33.8 °F 24.8 °F 32.0 °F 93% 29.80 in 7.0 mi West 12.7 mph - N/A   Overcast
1:54 PM 34.7 °F 28.1 °F 32.9 °F 93% 29.80 in 7.0 mi West 8.1 mph - N/A   Overcast
2:15 PM 35.1 °F 27.4 °F 32.7 °F 91% 29.80 in 7.0 mi West 10.4 mph - N/A   Overcast
2:35 PM 33.3 °F 27.9 °F 32.0 °F 95% 29.79 in 1.2 mi WNW 5.8 mph - N/A Snow Light Snow
2:55 PM 34.7 °F 26.9 °F 32.2 °F 91% 29.79 in 10.0 mi West 10.4 mph 19.6 mph N/A Snow Light Snow
3:15 PM 35.4 °F 28.4 °F 32.0 °F 87% 29.79 in 10.0 mi West 9.2 mph 17.3 mph N/A   Overcast
3:35 PM 36.7 °F 28.9 °F 32.7 °F 86% 29.79 in 10.0 mi West 11.5 mph - N/A   Overcast
3:55 PM 37.2 °F 29.6 °F 33.3 °F 86% 29.79 in 10.0 mi West 11.5 mph - N/A   Overcast
4:15 PM 37.4 °F 29.8 °F 33.4 °F 86% 29.79 in 10.0 mi West 11.5 mph 18.4 mph N/A   Overcast
4:34 PM 34.9 °F 25.7 °F 32.0 °F 89% 29.80 in 10.0 mi West 13.8 mph 18.4 mph N/A   Mostly Cloudy
4:55 PM 36.5 °F 29.7 °F 32.4 °F 85% 29.81 in 10.0 mi West 9.2 mph 17.3 mph N/A   Mostly Cloudy
5:15 PM 35.8 °F 28.8 °F 32.7 °F 89% 29.81 in 10.0 mi West 9.2 mph 16.1 mph N/A   Mostly Cloudy
5:35 PM 35.8 °F 28.3 °F 32.0 °F 86% 29.81 in 10.0 mi WNW 10.4 mph - N/A   Overcast
5:54 PM 36.0 °F 29.6 °F 31.1 °F 82% 29.81 in 10.0 mi WNW 8.1 mph - N/A   Overcast
6:15 PM 36.0 °F 29.0 °F 32.0 °F 86% 29.82 in 10.0 mi West 9.2 mph - N/A   Overcast
6:35 PM 34.7 °F 28.1 °F 32.0 °F 90% 29.82 in 10.0 mi West 8.1 mph 16.1 mph N/A   Overcast
6:54 PM 33.1 °F 26.1 °F 31.6 °F 94% 29.83 in 10.0 mi West 8.1 mph - N/A   Overcast
7:15 PM 33.1 °F 24.9 °F 31.6 °F 94% 29.83 in 10.0 mi West 10.4 mph - N/A   Overcast
7:35 PM 32.5 °F 22.7 °F 31.6 °F 96% 29.83 in 10.0 mi West 13.8 mph 18.4 mph N/A   Overcast
7:55 PM 32.5 °F 24.2 °F 31.8 °F 97% 29.83 in 5.0 mi West 10.4 mph 16.1 mph N/A Snow Light Snow
8:15 PM 32.5 °F 23.7 °F 31.5 °F 96% 29.84 in 10.0 mi West 11.5 mph 17.3 mph N/A   Overcast
8:35 PM 32.9 °F 25.3 °F 31.6 °F 95% 29.84 in 10.0 mi West 9.2 mph 17.3 mph N/A   Overcast
8:55 PM 32.2 °F 24.4 °F 31.8 °F 99% 29.83 in 4.0 mi West 9.2 mph - N/A Snow Light Snow
9:14 PM 32.4 °F 24.6 °F 32.0 °F 99% 29.83 in 7.0 mi West 9.2 mph - N/A   Overcast
9:35 PM 32.2 °F 22.3 °F 31.8 °F 99% 29.83 in 10.0 mi West 13.8 mph - N/A   Overcast
9:55 PM 32.0 °F 23.0 °F 31.8 °F 99% 29.83 in 1.8 mi West 11.5 mph 17.3 mph N/A Snow Light Snow
10:15 PM 32.0 °F 24.2 °F 31.8 °F 99% 29.83 in 10.0 mi West 9.2 mph - N/A Snow Light Snow
10:35 PM 32.0 °F 24.2 °F 31.6 °F 99% 29.83 in 10.0 mi WSW 9.2 mph - N/A   Overcast
10:55 PM 32.0 °F 24.2 °F 31.6 °F 99% 29.83 in 2.5 mi WSW 9.2 mph - N/A Snow Light Snow
11:15 PM 32.0 °F 24.2 °F 31.6 °F 99% 29.82 in 2.5 mi WSW 9.2 mph - N/A Snow Light Snow
11:35 PM 32.0 °F 24.8 °F 32.0 °F 100% 29.83 in 4.0 mi West 8.1 mph - N/A Snow Light Snow
11:55 PM 32.0 °F 23.6 °F 31.8 °F 99% 29.83 in 5.0 mi West 10.4 mph - 0.01 in Snow Light Snow